ASIASTAR

Last updated on Thu Mar 05 2026 00:02:54 GMT+0000 (Coordinated Universal Time)

1 26107U 00016A 26062.96379664 -.00000343 00000+0 00000+0 0 9998 2 26107 8.8860 59.2678 0004552 291.5573 262.8739 1.00271712 94868
UTC large
Height (km)
Speed (km/s)
/
Latitude / Longitude
Inclination (degrees)
Orbital Period (minutes)
Azimuth
Elevation
Range (km)
Doppler Factor

Next 0 passes for location: London (51.5072 / 0.1276)

Sorry there are no passes over London.